Regional Weather Roundup
Issued by NWS

Home | Current Version | Previous Version | Graphics & Text | Print | Product List | Glossary On
Versions: 1 2 3 4 5 6 7 8 9 10 11 12 13 14 15 16 17 18 19 20 21 22 23 24 25 26 27 28 29 30 31 32 33 34 35 36 37 38 39 40 41 42 43 44 45 46 47 48 49 50
000
ASUS43 KTOP 210759
RWRKS

WEATHER ROUNDUP FOR KANSAS
NATIONAL WEATHER SERVICE GOODLAND KS
300 AM CDT FRI JUL 21 2017

NOTE:  "FAIR" INDICATES FEW OR NO CLOUDS BELOW 12,000 FEET WITH NO
SIGNIFICANT WEATHER AND/OR OBSTRUCTIONS TO VISIBILITY.

KSZ001>006-013>018-027>032-041>047-210900-
NORTHWEST KANSAS

CITY           SKY/WX    TMP DP  RH WIND       PRES   REMARKS
GOODLAND       CLOUDY    78  56  46 SW15G22   29.95F
HAYS           CLEAR     82  59  45 S14       29.91F
HILL CITY      CLEAR     82  59  45 S10       29.89F
RUSSELL        CLEAR     82  59  45 S16       29.90F
$$

KSZ061>065-074>080-084>089-210900-
SOUTHWEST KANSAS

CITY           SKY/WX    TMP DP  RH WIND       PRES   REMARKS
DODGE CITY     CLEAR     80  59  48 S13       29.98S
ELKHART          N/A     75  47  37 S14         N/A
GARDEN CITY    CLEAR     71  58  63 S7        29.98R
LIBERAL        CLEAR     70  59  68 S8        30.01S
$$

KSZ066>073-081>083-090>101-210900-
SOUTHEAST KANSAS

CITY           SKY/WX    TMP DP  RH WIND       PRES   REMARKS
CHANUTE        CLEAR     80  73  79 S9        29.99S
COFFEYVILLE    CLEAR     78  74  87 SE5       29.98S
HUTCHINSON     CLEAR     83  66  56 S12       29.95F
MEDICINE LODGE   N/A     80  62  54 SE8       29.96S
NEWTON         CLEAR     82  69  64 S16       29.97F
PARSONS        PTCLDY    78  73  84 S3        30.00S
WICHITA INTL   CLEAR     81  70  69 S12       29.96F
WICHITA JABRA  CLEAR     82  70  66 S10       29.97F
WINFIELD       CLEAR     80  70  71 S8        29.98F
$$

KSZ007>012-019>026-033>040-048>060-102>105-210900-
NORTHEAST KANSAS

CITY           SKY/WX    TMP DP  RH WIND       PRES   REMARKS
CONCORDIA      CLEAR     82  67  60 S16       29.90S
EMPORIA        CLEAR     79  71  76 S13       29.96S
LAWRENCE       CLEAR     81  74  79 SE5       29.95S
MANHATTAN      CLEAR     85  70  60 S13       29.92S
OLATHE IND     CLEAR     78  73  84 S7        29.97F
OLATHE EXE     CLEAR     77  74  90 S6        29.97F
SALINA         CLEAR     86  67  52 S14G25    29.91F
TOPEKA BILLARD CLEAR     82  74  76 VRB3      29.94S
TOPEKA FORBES  CLEAR     82  74  76 S9        29.95S
$$



USA.gov is the U.S. government's official web portal to all federal, state and local government web resources and services.